DC1MPP-9 Weather Reports


Display with metric or nautical units.
time (UTC)temp
F
wind
direction
speed
MPH
gust
MPH
rain 1hr
in
rain 24hr
in
rain mn
in
humidity
%
barometer
mb
20260502191546 64 0 0.0 0.0 0.00 0.00 0.00 51 960.0
20260502191145 64 0 0.0 0.0 0.00 0.00 0.00 53 960.0
20260502190744 65 0 0.0 0.0 0.00 0.00 0.00 53 960.0
20260502190343 65 0 0.0 0.0 0.00 0.00 0.00 51 960.0
20260502185942 65 0 0.0 0.0 0.00 0.00 0.00 51 960.0
20260502185541 66 0 0.0 0.0 0.00 0.00 0.00 51 960.0
20260502185140 66 0 0.0 0.0 0.00 0.00 0.00 52 960.0
20260502184739 67 0 0.0 0.0 0.00 0.00 0.00 51 960.0
20260502184338 67 0 0.0 0.0 0.00 0.00 0.00 48 960.0
20260502183937 67 0 0.0 0.0 0.00 0.00 0.00 46 960.0
20260502183536 68 0 0.0 0.0 0.00 0.00 0.00 46 960.0
20260502183135 68 0 0.0 0.0 0.00 0.00 0.00 46 960.0
20260502182734 69 0 0.0 0.0 0.00 0.00 0.00 44 960.0
20260502182333 69 0 0.0 0.0 0.00 0.00 0.00 43 960.0
20260502181932 70 0 0.0 0.0 0.00 0.00 0.00 41 960.0
20260502181530 70 0 0.0 0.0 0.00 0.00 0.00 41 960.0
20260502181129 70 0 0.0 0.0 0.00 0.00 0.00 39 960.0
20260502180728 71 0 0.0 0.0 0.00 0.00 0.00 39 960.0
20260502180327 71 0 0.0 0.0 0.00 0.00 0.00 36 960.0
20260502170311 75 0 0.0 0.0 0.00 0.00 0.00 27 960.0
20260502164306 76 0 0.0 0.0 0.00 0.00 0.00 28 960.0
20260502163905 76 0 0.0 0.0 0.00 0.00 0.00 26 960.0
20260502163504 76 0 0.0 0.0 0.00 0.00 0.00 25 960.0
20260502163103 76 0 0.0 0.0 0.00 0.00 0.00 24 960.0
20260502162702 77 0 0.0 0.0 0.00 0.00 0.00 24 960.0
20260502162301 77 0 0.0 0.0 0.00 0.00 0.00 25 960.0
20260502161900 77 0 0.0 0.0 0.00 0.00 0.00 27 960.0
20260502161458 76 0 0.0 0.0 0.00 0.00 0.00 24 960.0
20260502161057 77 0 0.0 0.0 0.00 0.00 0.00 26 960.0
20260502160656 77 0 0.0 0.0 0.00 0.00 0.00 25 960.0
20260502160255 76 0 0.0 0.0 0.00 0.00 0.00 25 960.0
20260502152245 77 0 0.0 0.0 0.00 0.00 0.00 26 961.0
20260502151844 76 0 0.0 0.0 0.00 0.00 0.00 23 961.0
20260502151442 77 0 0.0 0.0 0.00 0.00 0.00 24 961.0
20260502151041 76 0 0.0 0.0 0.00 0.00 0.00 24 961.0
20260502150640 77 0 0.0 0.0 0.00 0.00 0.00 24 961.0
20260502150239 77 0 0.0 0.0 0.00 0.00 0.00 25 961.0
20260502130609 79 0 0.0 0.0 0.00 0.00 0.00 27 962.0
20260502130208 79 0 0.0 0.0 0.00 0.00 0.00 28 962.0
20260502123801 78 0 0.0 0.0 0.00 0.00 0.00 25 963.0
20260502123400 79 0 0.0 0.0 0.00 0.00 0.00 28 963.0
20260502122959 80 0 0.0 0.0 0.00 0.00 0.00 27 963.0
20260502122558 79 0 0.0 0.0 0.00 0.00 0.00 27 963.0
20260502122157 79 0 0.0 0.0 0.00 0.00 0.00 29 963.0
20260502121756 78 0 0.0 0.0 0.00 0.00 0.00 28 963.0
20260502121355 78 0 0.0 0.0 0.00 0.00 0.00 27 963.0
20260502120954 78 0 0.0 0.0 0.00 0.00 0.00 29 963.0
20260502120553 78 0 0.0 0.0 0.00 0.00 0.00 26 963.0
20260502120152 78 0 0.0 0.0 0.00 0.00 0.00 27 963.0
20260502115751 77 0 0.0 0.0 0.00 0.00 0.00 27 963.0
20260502115350 78 0 0.0 0.0 0.00 0.00 0.00 28 963.0
20260502114949 78 0 0.0 0.0 0.00 0.00 0.00 30 963.0
20260502114548 78 0 0.0 0.0 0.00 0.00 0.00 29 963.0
20260502114146 77 0 0.0 0.0 0.00 0.00 0.00 30 963.0
20260502113745 77 0 0.0 0.0 0.00 0.00 0.00 29 964.0
20260502113344 77 0 0.0 0.0 0.00 0.00 0.00 30 964.0
20260502112943 78 0 0.0 0.0 0.00 0.00 0.00 28 964.0
20260502112542 77 0 0.0 0.0 0.00 0.00 0.00 29 964.0
20260502112141 78 0 0.0 0.0 0.00 0.00 0.00 31 964.0
20260502111740 77 0 0.0 0.0 0.00 0.00 0.00 30 964.0
20260502111339 77 0 0.0 0.0 0.00 0.00 0.00 30 964.0
20260502110938 76 0 0.0 0.0 0.00 0.00 0.00 30 964.0
20260502110537 76 0 0.0 0.0 0.00 0.00 0.00 28 964.0
20260502110136 77 0 0.0 0.0 0.00 0.00 0.00 29 964.0
20260502105735 76 0 0.0 0.0 0.00 0.00 0.00 31 964.0
20260502105334 76 0 0.0 0.0 0.00 0.00 0.00 33 964.0
20260502104933 75 0 0.0 0.0 0.00 0.00 0.00 30 964.0
20260502104532 75 0 0.0 0.0 0.00 0.00 0.00 30 964.0
20260502104131 74 0 0.0 0.0 0.00 0.00 0.00 31 964.0
20260502103730 75 0 0.0 0.0 0.00 0.00 0.00 32 964.0
20260502103329 75 0 0.0 0.0 0.00 0.00 0.00 32 964.0
20260502102928 74 0 0.0 0.0 0.00 0.00 0.00 31 964.0
20260502102527 75 0 0.0 0.0 0.00 0.00 0.00 31 964.0
20260502102125 74 0 0.0 0.0 0.00 0.00 0.00 32 964.0
20260502101724 74 0 0.0 0.0 0.00 0.00 0.00 31 964.0
20260502101323 74 0 0.0 0.0 0.00 0.00 0.00 31 964.0
20260502100922 74 0 0.0 0.0 0.00 0.00 0.00 32 964.0
20260502100521 73 0 0.0 0.0 0.00 0.00 0.00 33 965.0
20260502100120 73 0 0.0 0.0 0.00 0.00 0.00 34 965.0
20260502091308 71 0 0.0 0.0 0.00 0.00 0.00 36 965.0
20260502090907 70 0 0.0 0.0 0.00 0.00 0.00 38 965.0
20260502090506 70 0 0.0 0.0 0.00 0.00 0.00 37 965.0
20260502090104 69 0 0.0 0.0 0.00 0.00 0.00 37 965.0
20260502071236 62 0 0.0 0.0 0.00 0.00 0.00 47 966.0
20260502070835 61 0 0.0 0.0 0.00 0.00 0.00 51 966.0
20260502070434 61 0 0.0 0.0 0.00 0.00 0.00 52 966.0
20260502070033 61 0 0.0 0.0 0.00 0.00 0.00 50 966.0
20260502065632 61 0 0.0 0.0 0.00 0.00 0.00 53 966.0
20260502065231 61 0 0.0 0.0 0.00 0.00 0.00 55 966.0
20260502064830 60 0 0.0 0.0 0.00 0.00 0.00 53 966.0
20260502064429 60 0 0.0 0.0 0.00 0.00 0.00 52 966.0
20260502064028 60 0 0.0 0.0 0.00 0.00 0.00 61 966.0
20260502063627 60 0 0.0 0.0 0.00 0.00 0.00 54 966.0
20260502063226 59 0 0.0 0.0 0.00 0.00 0.00 57 966.0
20260502062825 59 0 0.0 0.0 0.00 0.00 0.00 58 966.0
20260502062424 58 0 0.0 0.0 0.00 0.00 0.00 58 966.0
20260502062023 58 0 0.0 0.0 0.00 0.00 0.00 61 966.0
20260502061622 58 0 0.0 0.0 0.00 0.00 0.00 59 966.0
20260502061221 57 0 0.0 0.0 0.00 0.00 0.00 62 966.0
20260502060820 57 0 0.0 0.0 0.00 0.00 0.00 65 966.0
20260502060419 56 0 0.0 0.0 0.00 0.00 0.00 67 966.0
20260502060018 55 0 0.0 0.0 0.00 0.00 0.00 68 966.0
20260502055617 55 0 0.0 0.0 0.00 0.00 0.00 72 966.0
20260502055216 54 0 0.0 0.0 0.00 0.00 0.00 74 966.0
20260502054814 53 0 0.0 0.0 0.00 0.00 0.00 73 966.0
20260502054413 53 0 0.0 0.0 0.00 0.00 0.00 77 966.0
20260502054012 52 0 0.0 0.0 0.00 0.00 0.00 85 966.0
20260502053611 52 0 0.0 0.0 0.00 0.00 0.00 93 966.0
20260502053210 51 0 0.0 0.0 0.00 0.00 0.00 96 966.0
20260502052809 50 0 0.0 0.0 0.00 0.00 0.00 97 966.0
20260502052408 49 0 0.0 0.0 0.00 0.00 0.00 10 966.0
20260502052007 48 0 0.0 0.0 0.00 0.00 0.00 10 966.0
20260502051606 47 0 0.0 0.0 0.00 0.00 0.00 10 966.0
20260502051205 47 0 0.0 0.0 0.00 0.00 0.00 10 966.0
20260502050804 46 0 0.0 0.0 0.00 0.00 0.00 10 966.0
20260502050403 46 0 0.0 0.0 0.00 0.00 0.00 95 966.0
20260502050002 47 0 0.0 0.0 0.00 0.00 0.00 89 966.0
20260502045601 50 0 0.0 0.0 0.00 0.00 0.00 76 966.0
20260502045200 51 0 0.0 0.0 0.00 0.00 0.00 72 966.0
20260502044759 49 0 0.0 0.0 0.00 0.00 0.00 87 966.0
20260502044358 42 0 0.0 0.0 0.00 0.00 0.00 10 966.0
20260502043957 39 0 0.0 0.0 0.00 0.00 0.00 10 966.0
20260502043556 39 0 0.0 0.0 0.00 0.00 0.00 10 966.0
20260502043155 39 0 0.0 0.0 0.00 0.00 0.00 10 966.0
20260502042754 39 0 0.0 0.0 0.00 0.00 0.00 10 966.0
20260502042353 39 0 0.0 0.0 0.00 0.00 0.00 10 966.0
20260502041952 39 0 0.0 0.0 0.00 0.00 0.00 10 966.0
20260502041550 39 0 0.0 0.0 0.00 0.00 0.00 10 966.0
20260502041149 39 0 0.0 0.0 0.00 0.00 0.00 10 966.0
20260502040347 39 0 0.0 0.0 0.00 0.00 0.00 10 966.0
20260502035946 39 0 0.0 0.0 0.00 0.00 0.00 10 966.0
20260502035545 39 0 0.0 0.0 0.00 0.00 0.00 10 966.0
20260502035144 39 0 0.0 0.0 0.00 0.00 0.00 10 966.0
20260502034743 39 0 0.0 0.0 0.00 0.00 0.00 10 966.0
20260502034342 39 0 0.0 0.0 0.00 0.00 0.00 10 966.0
20260502033941 39 0 0.0 0.0 0.00 0.00 0.00 10 966.0
20260502033540 40 0 0.0 0.0 0.00 0.00 0.00 10 966.0
20260502033139 40 0 0.0 0.0 0.00 0.00 0.00 10 966.0
20260502032738 40 0 0.0 0.0 0.00 0.00 0.00 10 966.0
20260502031936 40 0 0.0 0.0 0.00 0.00 0.00 10 966.0
20260502031535 40 0 0.0 0.0 0.00 0.00 0.00 10 966.0
20260502031134 40 0 0.0 0.0 0.00 0.00 0.00 10 966.0
20260502030733 40 0 0.0 0.0 0.00 0.00 0.00 10 966.0
20260502030332 40 0 0.0 0.0 0.00 0.00 0.00 10 966.0
20260502025931 40 0 0.0 0.0 0.00 0.00 0.00 10 966.0
20260502025530 41 0 0.0 0.0 0.00 0.00 0.00 10 966.0
20260502025128 41 0 0.0 0.0 0.00 0.00 0.00 10 966.0
20260502024727 41 0 0.0 0.0 0.00 0.00 0.00 10 966.0
20260502024326 41 0 0.0 0.0 0.00 0.00 0.00 10 966.0
20260502023925 41 0 0.0 0.0 0.00 0.00 0.00 10 966.0
20260502023524 41 0 0.0 0.0 0.00 0.00 0.00 10 966.0
20260502023123 41 0 0.0 0.0 0.00 0.00 0.00 10 966.0
20260502022722 41 0 0.0 0.0 0.00 0.00 0.00 10 966.0
20260502022321 41 0 0.0 0.0 0.00 0.00 0.00 10 966.0
20260502021920 41 0 0.0 0.0 0.00 0.00 0.00 10 966.0
20260502021519 41 0 0.0 0.0 0.00 0.00 0.00 10 966.0
20260502021118 41 0 0.0 0.0 0.00 0.00 0.00 10 966.0
20260502020717 42 0 0.0 0.0 0.00 0.00 0.00 10 966.0
20260502020316 42 0 0.0 0.0 0.00 0.00 0.00 10 966.0
20260502015915 42 0 0.0 0.0 0.00 0.00 0.00 10 966.0
20260502015514 42 0 0.0 0.0 0.00 0.00 0.00 99 966.0
20260502015113 42 0 0.0 0.0 0.00 0.00 0.00 99 966.0
20260502014712 42 0 0.0 0.0 0.00 0.00 0.00 99 966.0
20260502014311 42 0 0.0 0.0 0.00 0.00 0.00 10 966.0
20260502013910 42 0 0.0 0.0 0.00 0.00 0.00 98 966.0
20260502013509 42 0 0.0 0.0 0.00 0.00 0.00 10 966.0
20260502013108 43 0 0.0 0.0 0.00 0.00 0.00 98 966.0
20260502012706 43 0 0.0 0.0 0.00 0.00 0.00 97 966.0
20260502012306 43 0 0.0 0.0 0.00 0.00 0.00 97 966.0
20260502011904 43 0 0.0 0.0 0.00 0.00 0.00 97 966.0
20260502011503 43 0 0.0 0.0 0.00 0.00 0.00 97 966.0
20260502011102 43 0 0.0 0.0 0.00 0.00 0.00 97 966.0
20260502010701 43 0 0.0 0.0 0.00 0.00 0.00 96 966.0
20260502010300 43 0 0.0 0.0 0.00 0.00 0.00 96 966.0
20260502005859 43 0 0.0 0.0 0.00 0.00 0.00 95 966.0
20260502005458 43 0 0.0 0.0 0.00 0.00 0.00 95 966.0
20260502005057 43 0 0.0 0.0 0.00 0.00 0.00 95 966.0
20260502004656 44 0 0.0 0.0 0.00 0.00 0.00 95 966.0
20260502004255 44 0 0.0 0.0 0.00 0.00 0.00 96 966.0
20260502003854 44 0 0.0 0.0 0.00 0.00 0.00 94 966.0
20260502003453 44 0 0.0 0.0 0.00 0.00 0.00 94 966.0
20260502003052 44 0 0.0 0.0 0.00 0.00 0.00 93 966.0
20260502002651 44 0 0.0 0.0 0.00 0.00 0.00 93 966.0
20260502002250 44 0 0.0 0.0 0.00 0.00 0.00 92 966.0
20260502001849 44 0 0.0 0.0 0.00 0.00 0.00 91 966.0
20260502001448 44 0 0.0 0.0 0.00 0.00 0.00 90 966.0
20260502001047 44 0 0.0 0.0 0.00 0.00 0.00 90 966.0
20260502000646 45 0 0.0 0.0 0.00 0.00 0.00 90 966.0
20260502000245 45 0 0.0 0.0 0.00 0.00 0.00 90 967.0
20260501235844 45 0 0.0 0.0 0.00 0.00 0.00 91 967.0
20260501235041 45 0 0.0 0.0 0.00 0.00 0.00 89 967.0
20260501234640 45 0 0.0 0.0 0.00 0.00 0.00 89 967.0
20260501234239 45 0 0.0 0.0 0.00 0.00 0.00 89 967.0
20260501233838 45 0 0.0 0.0 0.00 0.00 0.00 88 967.0
20260501233437 46 0 0.0 0.0 0.00 0.00 0.00 88 967.0
20260501233036 46 0 0.0 0.0 0.00 0.00 0.00 86 967.0
20260501232635 46 0 0.0 0.0 0.00 0.00 0.00 85 967.0
20260501232234 46 0 0.0 0.0 0.00 0.00 0.00 85 967.0
20260501231833 46 0 0.0 0.0 0.00 0.00 0.00 84 967.0
20260501231432 46 0 0.0 0.0 0.00 0.00 0.00 85 967.0
20260501231031 46 0 0.0 0.0 0.00 0.00 0.00 83 967.0
20260501230630 47 0 0.0 0.0 0.00 0.00 0.00 83 967.0
20260501230229 47 0 0.0 0.0 0.00 0.00 0.00 82 967.0
20260501225828 47 0 0.0 0.0 0.00 0.00 0.00 82 967.0
20260501225427 47 0 0.0 0.0 0.00 0.00 0.00 82 967.0
20260501225026 47 0 0.0 0.0 0.00 0.00 0.00 82 967.0
20260501224625 47 0 0.0 0.0 0.00 0.00 0.00 81 967.0
20260501224224 47 0 0.0 0.0 0.00 0.00 0.00 81 967.0
20260501223823 47 0 0.0 0.0 0.00 0.00 0.00 81 967.0
20260501223422 47 0 0.0 0.0 0.00 0.00 0.00 81 967.0
20260501223021 48 0 0.0 0.0 0.00 0.00 0.00 80 967.0
20260501222619 48 0 0.0 0.0 0.00 0.00 0.00 78 967.0
20260501222218 48 0 0.0 0.0 0.00 0.00 0.00 77 967.0
20260501221817 48 0 0.0 0.0 0.00 0.00 0.00 76 967.0
20260501221416 48 0 0.0 0.0 0.00 0.00 0.00 75 967.0
20260501221015 48 0 0.0 0.0 0.00 0.00 0.00 74 967.0
20260501220614 49 0 0.0 0.0 0.00 0.00 0.00 73 967.0
20260501220213 49 0 0.0 0.0 0.00 0.00 0.00 72 967.0
20260501215812 49 0 0.0 0.0 0.00 0.00 0.00 72 967.0
20260501215411 49 0 0.0 0.0 0.00 0.00 0.00 72 967.0
20260501215010 49 0 0.0 0.0 0.00 0.00 0.00 71 967.0
20260501214609 49 0 0.0 0.0 0.00 0.00 0.00 71 967.0
20260501214208 50 0 0.0 0.0 0.00 0.00 0.00 70 967.0
20260501213807 50 0 0.0 0.0 0.00 0.00 0.00 70 967.0
20260501213406 50 0 0.0 0.0 0.00 0.00 0.00 70 967.0
20260501213005 50 0 0.0 0.0 0.00 0.00 0.00 69 967.0
20260501212604 50 0 0.0 0.0 0.00 0.00 0.00 69 967.0
20260501212203 51 0 0.0 0.0 0.00 0.00 0.00 69 967.0
20260501211802 51 0 0.0 0.0 0.00 0.00 0.00 68 967.0
20260501211401 51 0 0.0 0.0 0.00 0.00 0.00 67 967.0
20260501211000 51 0 0.0 0.0 0.00 0.00 0.00 66 967.0
20260501210559 51 0 0.0 0.0 0.00 0.00 0.00 66 967.0
20260501210157 51 0 0.0 0.0 0.00 0.00 0.00 66 967.0
20260501205756 52 0 0.0 0.0 0.00 0.00 0.00 65 967.0
20260501205355 52 0 0.0 0.0 0.00 0.00 0.00 64 967.0
20260501204954 52 0 0.0 0.0 0.00 0.00 0.00 63 967.0
20260501204553 52 0 0.0 0.0 0.00 0.00 0.00 63 967.0
20260501204152 52 0 0.0 0.0 0.00 0.00 0.00 63 967.0
20260501203751 53 0 0.0 0.0 0.00 0.00 0.00 61 967.0
20260501203350 53 0 0.0 0.0 0.00 0.00 0.00 61 967.0
20260501202949 53 0 0.0 0.0 0.00 0.00 0.00 60 967.0
20260501202548 53 0 0.0 0.0 0.00 0.00 0.00 59 967.0
20260501202147 54 0 0.0 0.0 0.00 0.00 0.00 59 967.0
20260501201746 54 0 0.0 0.0 0.00 0.00 0.00 58 967.0
20260501201345 54 0 0.0 0.0 0.00 0.00 0.00 57 967.0
20260501200944 54 0 0.0 0.0 0.00 0.00 0.00 55 967.0
20260501200543 55 0 0.0 0.0 0.00 0.00 0.00 55 967.0
20260501200142 55 0 0.0 0.0 0.00 0.00 0.00 55 967.0
20260501195741 55 0 0.0 0.0 0.00 0.00 0.00 55 967.0
20260501195340 56 0 0.0 0.0 0.00 0.00 0.00 53 967.0
20260501194939 56 0 0.0 0.0 0.00 0.00 0.00 52 967.0
20260501194538 56 0 0.0 0.0 0.00 0.00 0.00 51 967.0
20260501194136 57 0 0.0 0.0 0.00 0.00 0.00 49 967.0
20260501193735 57 0 0.0 0.0 0.00 0.00 0.00 48 967.0
20260501193334 57 0 0.0 0.0 0.00 0.00 0.00 45 967.0
20260501192933 57 0 0.0 0.0 0.00 0.00 0.00 45 967.0
20260501192532 57 0 0.0 0.0 0.00 0.00 0.00 46 967.0